TimeCST,TemperatureF,Dew PointF,Humidity,Sea Level PressureIn,VisibilityMPH,Wind Direction,Wind SpeedMPH,Gust SpeedMPH,PrecipitationIn,Events,Conditions,WindDirDegrees,DateUTC
12:15 AM,48.2,47.5,97,29.67,0.5,SSE,11.5,-,N/A,Fog,Fog,160,2013-01-29 06:15:00
12:35 AM,49.3,48.6,97,29.67,0.8,South,13.8,-,N/A,,Overcast,170,2013-01-29 06:35:00
12:55 AM,49.1,48.2,97,29.66,1.0,South,13.8,-,N/A,,Overcast,170,2013-01-29 06:55:00
1:15 AM,49.5,48.9,98,29.66,1.8,South,10.4,-,N/A,,Overcast,170,2013-01-29 07:15:00
1:35 AM,50.0,49.1,97,29.65,2.0,South,10.4,-,N/A,,Overcast,180,2013-01-29 07:35:00
1:55 AM,50.4,49.8,98,29.64,2.5,South,10.4,-,N/A,,Overcast,170,2013-01-29 07:55:00
2:15 AM,51.1,50.4,97,29.64,4.0,South,8.1,-,N/A,,Overcast,180,2013-01-29 08:15:00
2:35 AM,51.4,50.7,97,29.63,4.0,South,9.2,-,N/A,,Mostly Cloudy,170,2013-01-29 08:35:00
2:55 AM,50.2,49.5,97,29.63,3.0,South,3.5,-,N/A,,Mostly Cloudy,190,2013-01-29 08:55:00
3:15 AM,50.7,49.8,97,29.63,3.0,South,5.8,-,N/A,,Mostly Cloudy,170,2013-01-29 09:15:00
3:35 AM,50.7,50.0,97,29.62,4.0,SSE,6.9,-,N/A,,Scattered Clouds,160,2013-01-29 09:35:00
3:55 AM,50.9,50.2,97,29.61,4.0,SSE,8.1,-,N/A,,Scattered Clouds,160,2013-01-29 09:55:00
4:15 AM,51.8,51.1,97,29.60,5.0,SSE,11.5,-,N/A,,Scattered Clouds,160,2013-01-29 10:15:00
4:35 AM,52.3,51.6,97,29.59,5.0,SSE,10.4,-,N/A,,Clear,160,2013-01-29 10:35:00
4:55 AM,52.7,51.8,97,29.58,5.0,SSE,9.2,-,N/A,,Mostly Cloudy,160,2013-01-29 10:55:00
5:15 AM,52.7,51.8,97,29.60,4.0,West,4.6,-,0.01,Rain-Thunderstorm,Light Thunderstorms and Rain,260,2013-01-29 11:15:00
5:35 AM,53.6,52.7,97,29.58,7.0,South,9.2,-,0.01,,Overcast,170,2013-01-29 11:35:00
5:55 AM,55.6,54.3,96,29.61,7.0,SW,20.7,25.3,0.03,Rain-Thunderstorm,Rain,220,2013-01-29 11:55:00
6:15 AM,57.7,55.6,92,29.60,10.0,SSW,15.0,20.7,N/A,,Overcast,210,2013-01-29 12:15:00
6:35 AM,56.3,54.3,93,29.60,10.0,SSW,13.8,-,N/A,,Overcast,200,2013-01-29 12:35:00
6:55 AM,55.4,53.8,94,29.59,7.0,South,11.5,-,N/A,,Mostly Cloudy,180,2013-01-29 12:55:00
7:15 AM,54.3,52.5,94,29.59,5.0,South,8.1,-,N/A,,Scattered Clouds,170,2013-01-29 13:15:00
7:35 AM,54.9,53.4,95,29.58,5.0,SSE,6.9,-,N/A,,Mostly Cloudy,150,2013-01-29 13:35:00
7:55 AM,53.1,51.8,95,29.59,3.0,SSE,8.1,-,N/A,,Overcast,160,2013-01-29 13:55:00
8:15 AM,55.4,54.3,96,29.59,4.0,South,9.2,-,N/A,Thunderstorm,Scattered Clouds,190,2013-01-29 14:15:00
8:35 AM,57.0,55.6,95,29.61,4.0,SW,9.2,33.4,0.03,Rain,Light Rain,220,2013-01-29 14:35:00
8:55 AM,56.3,54.3,93,29.57,7.0,SSW,4.6,18.4,0.04,Rain,Light Rain,200,2013-01-29 14:55:00
9:15 AM,56.7,54.0,91,29.57,10.0,South,10.4,-,N/A,,Scattered Clouds,170,2013-01-29 15:15:00
9:35 AM,56.8,55.4,95,29.56,5.0,SSE,8.1,-,N/A,,Mostly Cloudy,160,2013-01-29 15:35:00
9:55 AM,57.9,56.3,94,29.58,7.0,South,10.4,-,N/A,,Mostly Cloudy,180,2013-01-29 15:55:00
10:15 AM,57.2,55.6,94,29.58,5.0,WSW,3.5,-,N/A,,Overcast,240,2013-01-29 16:15:00
10:35 AM,57.9,55.9,93,29.57,7.0,South,10.4,-,N/A,,Overcast,170,2013-01-29 16:35:00
10:55 AM,58.1,56.3,94,29.58,7.0,South,9.2,-,N/A,,Overcast,170,2013-01-29 16:55:00
11:15 AM,58.3,55.9,92,29.57,7.0,South,6.9,-,N/A,,Overcast,190,2013-01-29 17:15:00
11:35 AM,56.5,54.5,93,29.56,7.0,South,4.6,-,N/A,,Overcast,180,2013-01-29 17:35:00
11:55 AM,57.9,55.9,93,29.55,7.0,South,6.9,-,N/A,,Overcast,170,2013-01-29 17:55:00
12:15 PM,59.2,56.8,92,29.52,7.0,SSW,3.5,-,N/A,Rain,Light Rain,200,2013-01-29 18:15:00
12:35 PM,58.6,56.3,92,29.54,7.0,South,6.9,-,N/A,,Drizzle,180,2013-01-29 18:35:00
12:55 PM,57.4,55.6,94,29.54,4.0,SSW,11.5,-,0.01,Rain,Rain,200,2013-01-29 18:55:00
1:15 PM,56.3,54.9,95,29.55,2.5,WSW,15.0,26.5,0.06,Rain,Rain,240,2013-01-29 19:15:00
1:35 PM,52.3,50.4,93,29.53,4.0,WNW,12.7,17.3,0.09,Rain,Rain,300,2013-01-29 19:35:00
1:55 PM,51.4,50.0,95,29.51,5.0,NW,9.2,-,0.11,Rain,Rain,310,2013-01-29 19:55:00
2:15 PM,50.5,49.1,95,29.50,5.0,WNW,10.4,-,N/A,Rain,Light Rain,300,2013-01-29 20:15:00
2:35 PM,49.6,48.4,95,29.51,4.0,WNW,6.9,-,0.01,Rain,Light Rain,300,2013-01-29 20:35:00
2:55 PM,48.4,47.3,96,29.51,5.0,West,5.8,-,0.02,Rain,Light Rain,270,2013-01-29 20:55:00
3:15 PM,47.3,45.7,94,29.50,4.0,WNW,3.5,-,0.01,Rain,Light Rain,300,2013-01-29 21:15:00
3:35 PM,46.6,45.5,96,29.51,5.0,West,3.5,-,0.01,Rain,Rain,270,2013-01-29 21:35:00
3:55 PM,46.6,45.1,95,29.51,5.0,WNW,4.6,-,0.02,Rain,Rain,290,2013-01-29 21:55:00
4:15 PM,46.2,44.6,94,29.50,4.0,NW,5.8,-,N/A,Rain,Rain,310,2013-01-29 22:15:00
4:35 PM,45.5,44.2,95,29.50,3.0,NW,4.6,-,0.02,Rain,Rain,320,2013-01-29 22:35:00
4:55 PM,45.5,44.6,97,29.49,2.0,WNW,3.5,-,0.03,Rain,Light Rain,290,2013-01-29 22:55:00
5:15 PM,44.8,43.9,97,29.50,2.0,NW,4.6,-,0.02,Rain,Rain,320,2013-01-29 23:15:00
5:35 PM,45.5,44.6,97,29.50,4.0,North,3.5,-,0.04,Rain,Rain,360,2013-01-29 23:35:00
5:55 PM,45.3,44.4,97,29.50,4.0,North,3.5,-,0.06,Rain,Rain,10,2013-01-29 23:55:00
6:15 PM,44.8,43.9,97,29.50,3.0,NNW,5.8,-,0.01,Rain,Rain,330,2013-01-30 00:15:00
6:35 PM,44.1,43.2,97,29.51,5.0,NNW,6.9,-,0.02,,Drizzle,330,2013-01-30 00:35:00
6:55 PM,42.8,41.9,97,29.50,4.0,NW,5.8,-,0.03,Rain,Light Rain,310,2013-01-30 00:55:00
7:15 PM,42.8,41.9,97,29.50,4.0,North,3.5,-,0.01,Rain,Rain,350,2013-01-30 01:15:00
7:35 PM,42.8,41.7,96,29.49,5.0,NNW,6.9,-,0.01,Rain,Rain,340,2013-01-30 01:35:00
7:55 PM,42.3,41.2,96,29.49,5.0,NW,6.9,-,0.02,Rain,Light Rain,320,2013-01-30 01:55:00
8:15 PM,41.0,40.1,97,29.50,4.0,NW,6.9,-,0.01,Rain,Rain,320,2013-01-30 02:15:00
8:35 PM,41.0,40.1,97,29.46,5.0,North,10.4,-,0.04,Rain,Light Rain,360,2013-01-30 02:35:00
8:55 PM,40.6,39.6,96,29.49,7.0,NNW,8.1,-,0.05,Rain,Rain,330,2013-01-30 02:55:00
9:15 PM,40.3,39.2,96,29.49,7.0,NNW,8.1,-,N/A,Rain,Rain,330,2013-01-30 03:15:00
9:35 PM,40.1,38.8,95,29.49,5.0,NNW,8.1,-,0.04,Rain,Rain,330,2013-01-30 03:35:00
9:55 PM,39.4,38.3,96,29.47,7.0,North,9.2,-,0.06,Rain,Light Rain,360,2013-01-30 03:55:00
10:15 PM,38.8,37.6,95,29.46,7.0,North,10.4,-,0.01,Rain,Rain,350,2013-01-30 04:15:00
10:35 PM,38.8,37.4,95,29.49,7.0,North,8.1,-,0.01,Rain,Light Rain,350,2013-01-30 04:35:00
10:55 PM,38.5,37.0,95,29.48,7.0,North,9.2,-,0.02,Rain,Rain,350,2013-01-30 04:55:00
11:15 PM,38.1,36.9,95,29.48,5.0,NNW,9.2,-,0.01,Rain,Light Rain,330,2013-01-30 05:15:00
11:35 PM,37.6,36.3,95,29.46,4.0,NNW,11.5,-,0.02,Rain,Rain,340,2013-01-30 05:35:00
11:55 PM,36.9,35.6,95,29.45,7.0,NNW,10.4,16.1,0.03,,Drizzle,340,2013-01-30 05:55:00